Location: *
(58.7167°N, 26.1833°E)
Time: 16:41:09
(UTC+00:00)

Okean 1 Rocket - Pass Details

Date: 25 August 2019
Orbit: 608 x 634 km, 82.5° (Epoch: 15 October)

Event Time Altitude Azimuth Distance (km) Brightness Sun altitude
Exits shadow 20:05:22 27° 128° (SE) 1,185 3.9 -15.7°
Maximum altitude 20:06:47 34° 91° (E) 1,017 3.9 -15.8°
Drops below altitude 10° 20:10:44 10° 27° (NNE) 1,977 6.0 -16.1°
Sets 20:13:05 0° 18° (NNE) 2,885 7.1 -16.2°
